Temp
23 22 23 23 22 22 22 23 25 24 24 24 25 25 25 26 26 27 27 25 25 27
21 21 21 22 22 22 22 25 26 24 23 23 23 24 24 24 24 24 25 26 26 25
19 20 20 21 20 21 22 23 23 22 23 23 23 23 22 22 24 23 24 26 25 25
17 19 19 20 20 20 22 21 21 22 22 22 22 22 22 21 21 21 22 24 24 24
17 18 17 18 19 20 19 21 20 21 21 21 22 22 21 20 22 20 20 21 22 22
15 15 15 16 17 18 18 18 19 21 20 20 21 21 21 21 21 21 21 22 22 22
13 14 14 15 16 16 17 17 18 19 19 20 20 22 22 23 22 22 23 24 25 24
13 13 14 14 15 16 17 17 18 18 19 19 20 22 22 24 24 24 24 25 27 27
11 12 13 13 14 15 15 16 16 16 17 16 20 24 27 27 25 25 26 24 26 27
7 9 11 12 13 13 13 15 14 15 16 16 17 23 26 28 27 26 25 25 25 26
4 6 9 9 11 12 13 13 13 14 15 15 17 23 25 28 26 25 24 24 24 24
3 2 4 5 6 10 10 11 12 15 15 15 17 22 24 26 24 24 23 25 25 25
2 0 -1 2 2 4 8 11 14 15 16 18 16 20 23 24 23 20 23 24 26 29
1 0 1 -0 -6 1 2 8 7 9 10 12 14 14 21 25 24 23 23 23 24 26
MSLP
1036.05 1036.04 1035.94 1035.79 1035.85 1035.81 1035.73 1035.43 1035.13 1034.96 1034.86 1034.58 1034.17 1033.82 1033.60 1033.36 1033.11 1032.75 1032.58 1032.32 1032.04 1031.66
1036.07 1036.13 1036.10 1035.98 1035.90 1035.76 1035.64 1035.24 1034.84 1034.90 1034.64 1034.35 1034.06 1033.73 1033.46 1033.17 1032.87 1032.73 1032.37 1031.92 1031.54 1031.22
1036.31 1036.29 1036.21 1036.07 1035.86 1035.70 1035.45 1035.15 1034.92 1034.63 1034.39 1034.12 1033.81 1033.52 1033.34 1033.05 1032.60 1032.37 1031.99 1031.52 1031.18 1030.83
1036.39 1036.16 1036.05 1035.86 1035.71 1035.46 1035.14 1034.92 1034.61 1034.28 1033.99 1033.70 1033.38 1033.08 1032.98 1032.72 1032.29 1031.93 1031.43 1031.17 1030.81 1030.28
1036.23 1035.96 1035.85 1035.68 1035.40 1035.10 1034.83 1034.54 1034.28 1033.87 1033.52 1033.22 1032.87 1032.62 1032.49 1032.07 1031.74 1031.31 1030.90 1030.57 1030.32 1029.81
1035.87 1035.73 1035.52 1035.34 1034.99 1034.75 1034.46 1034.15 1033.79 1033.33 1033.14 1032.81 1032.45 1032.14 1031.78 1031.48 1031.06 1030.74 1030.33 1029.91 1029.56 1029.04
1035.65 1035.39 1035.18 1034.96 1034.66 1034.33 1033.95 1033.60 1033.28 1032.93 1032.56 1032.24 1031.94 1031.52 1031.13 1030.62 1030.23 1029.79 1029.30 1028.86 1028.37 1027.79
1035.20 1034.90 1034.68 1034.36 1034.00 1033.65 1033.33 1032.95 1032.69 1032.28 1031.91 1031.70 1031.38 1030.76 1030.21 1029.68 1029.10 1028.59 1027.96 1027.46 1027.06 1026.65
1034.75 1034.42 1034.09 1033.76 1033.41 1033.08 1032.73 1032.41 1032.09 1031.72 1031.39 1031.04 1030.60 1029.82 1029.05 1028.39 1027.89 1027.43 1026.94 1026.42 1026.08 1025.71
1034.15 1033.84 1033.48 1033.16 1032.87 1032.53 1032.14 1031.79 1031.43 1031.06 1030.70 1030.20 1029.77 1029.08 1028.24 1027.48 1026.74 1026.34 1026.02 1025.74 1025.32 1024.76
1033.52 1033.14 1032.73 1032.46 1032.18 1031.86 1031.53 1031.25 1030.83 1030.36 1029.93 1029.38 1028.87 1028.16 1027.36 1026.50 1025.91 1025.51 1025.14 1024.92 1024.52 1024.04
1032.39 1032.22 1031.99 1031.78 1031.52 1031.18 1030.93 1030.54 1030.14 1029.62 1029.00 1028.45 1027.77 1027.34 1026.64 1025.89 1025.28 1024.69 1024.18 1023.88 1023.45 1022.95
1031.24 1031.23 1031.23 1030.93 1030.73 1030.43 1030.19 1029.69 1029.29 1028.72 1028.26 1027.70 1026.94 1026.55 1025.88 1025.38 1024.70 1023.78 1023.19 1022.66 1022.00 1021.40
1030.16 1030.18 1030.05 1029.93 1029.87 1029.70 1029.50 1029.07 1028.68 1028.27 1027.66 1027.09 1026.57 1025.86 1024.97 1024.10 1023.31 1022.70 1022.03 1021.33 1020.64 1020.06
Wind_Speed
4 3 3 3 4 4 5 6 8 5 5 5 6 6 5 5 5 6 5 7 6 6
4 5 4 5 5 5 5 7 8 7 8 7 6 6 7 6 7 7 7 8 8 6
4 4 5 5 6 7 7 7 8 8 8 8 7 6 5 7 7 8 7 7 8 7
4 5 5 6 6 7 7 7 8 8 9 9 8 7 7 7 9 10 9 8 9 11
6 5 6 7 7 8 8 8 9 9 9 9 9 9 9 10 10 10 11 10 10 11
6 6 7 7 8 8 8 9 9 10 9 10 10 10 10 11 11 11 12 11 12 12
7 7 7 8 8 9 8 9 9 9 9 10 10 12 12 13 12 12 12 12 12 13
8 7 8 9 9 9 9 9 9 10 10 10 10 10 11 12 12 13 13 13 13 14
7 8 8 9 9 9 9 9 9 10 11 11 10 19 21 19 13 14 15 14 13 13
8 9 9 9 9 9 10 9 10 10 11 12 12 22 23 23 13 13 12 13 13 14
9 10 10 9 9 9 9 9 10 10 11 13 12 21 22 23 15 13 14 13 14 15
9 9 9 9 9 9 8 9 9 12 12 13 13 21 23 21 14 14 15 14 14 15
8 8 8 9 8 7 8 11 10 14 13 16 16 20 25 22 11 14 12 14 15 24
7 9 9 7 4 7 7 10 10 13 12 13 14 15 25 24 13 11 11 12 12 11
Wind_Direction
12 1 337 340 331 317 312 310 308 303 318 308 312 312 308 304 296 287 296 283 269 274
10 346 326 318 306 296 292 298 306 315 306 302 299 298 303 297 295 288 287 284 283 275
328 310 297 297 292 291 292 294 295 298 296 297 293 289 283 290 287 284 279 278 274 270
294 289 287 289 288 285 291 291 291 294 294 292 292 288 284 276 276 270 273 271 277 278
282 283 278 279 282 287 285 286 287 287 287 288 288 287 281 279 283 279 276 274 269 269
281 278 273 273 279 282 282 280 280 286 283 283 282 284 281 277 275 269 265 265 265 267
265 267 267 269 271 273 275 277 277 275 277 280 281 282 282 281 276 271 266 264 265 269
263 263 267 269 270 271 270 273 277 280 280 280 278 276 271 267 266 268 273 272 272 271
263 267 265 266 268 269 269 271 274 275 279 279 276 282 284 285 278 274 274 277 274 275
258 261 259 261 263 263 265 269 270 272 275 276 275 282 284 282 275 276 278 279 281 280
242 246 251 250 253 258 261 266 269 275 276 275 275 281 283 285 286 281 277 277 277 274
237 244 246 246 245 254 259 263 267 278 278 273 275 282 284 284 286 281 278 274 270 269
237 233 240 242 240 245 250 264 272 283 281 277 282 283 284 284 273 270 272 272 270 272
236 237 239 242 220 245 246 268 274 275 273 273 270 272 276 277 271 270 273 271 273 271